sat.trackr.live / text

‹ back to catalog

STARLINK-35091

NORAD 65640 · 2025-210U

PAYLOAD ACTIVE UNKNOWN

§ Identity

Operator
Country
US
Launch date
2025-09-18
Launch site
AFETR
Launch vehicle
Mass (kg)
RCS (m²)

Purposes: comms

External: N2YO · Heavens-Above · Gunter

§ Orbital elements

Epoch: 2026-09-20T05:09:35.028000Z

Period
93.85 min
Inclination
53.1577°
Eccentricity
0.0000959
Mean motion
15.34434821 rev/d
Perigee alt
461.9 km
Apogee alt
463.3 km
Semi-major
6,840.7 km
B*
6.1375e-4
RAAN
119.2832°
Arg perigee
94.9149°
Mean anomaly
265.1963°
Rev number
5,757

§ Raw data

STARLINK-350911 65640U 25210U   26263.21498875  .00020440  00000+0  61375-3 0  99982 65640  53.1577 119.2832 0000959  94.9149 265.1963 15.34434821 57577

JSON: /api/v1/satellites/65640 · /tle

For live sub-satellite position, see the globe view (requires WebGL).

§ Visibility from observer

Set your observer location to see the next 7 days of passes ≥ 10°. The values pass through the URL so the page stays shareable.

No JS? Fill the form by hand. The geolocation button needs JavaScript.